Dallas Addison, TX

1:18 PM CDT on September 25, 2017 (GMT -0500)
Addison

Weather History for KADS - June, 2013

Change the Weather History Date:

Thursday, June 6, 2013

  Actual Average Record
Temperature  
Mean Temperature 74 °F -  
Max Temperature 80 °F 86 °F 98 °F (2006)
Min Temperature 68 °F 69 °F 57 °F (1998)
Cooling Degree Days 9    
Growing Degree Days 24 (Base 50)    
Moisture  
Dew Point 66 °F    
Average Humidity 76    
Maximum Humidity 100    
Minimum Humidity 58    
Precipitation  
Precipitation 0.11 in - - ()
Sea Level Pressure  
Sea Level Pressure 29.88 in    
Wind  
Wind Speed 7 mph (NNE)    
Max Wind Speed 22 mph    
Max Gust Speed 29 mph    
Visibility 10 miles    
Events Rain , Thunderstorm    
Averages and records for this station are not official NWS values.
T = Trace of Precipitation, MM = Missing Value Source: NWS Daily Summary

Daily Weather History Graph

Daily Weather History Graph

Search for Another Location

Airport or City:

Trip Planner

Search our weather history database for the weather conditions in past years. The results will help you decide how hot, cold, wet, or windy it might be!

Date:

Astronomy

Jun. 06, 2013 Rise Set
Actual Time 6:18 AM CDT 8:33 PM CDT
Civil Twilight 5:50 AM CDT 9:02 PM CDT
Nautical Twilight 5:15 AM CDT 9:37 PM CDT
Astronomical Twilight 4:37 AM CDT 10:14 PM CDT
Moon 4:55 AM CDT (6/6) 7:00 PM CDT (6/6)
Length of Visible Light 15h 12m
Length of Day
14h 15m
Waning Crescent, 3% of the Moon is Illuminated
Jun 6
Waning Crescent
Jun 8
New
Jun 16
First Quarter
Jun 23
Full
Jun 29
Last Quarter

Hourly Weather History & Observations

Time (CDT) Temp. Heat Index Dew Point Humidity Pressure Visibility Wind Dir Wind Speed Gust Speed Precip Events Conditions
12:15 AM 80.6 °F 82.3 °F 64.4 °F 58% 29.85 in 10.0 mi East 4.6 mph - N/A   Clear
12:35 AM 80.6 °F 82.3 °F 64.4 °F 58% 29.85 in 10.0 mi East 4.6 mph - N/A   Clear
12:55 AM 80.6 °F 82.3 °F 64.4 °F 58% 29.86 in 10.0 mi East 4.6 mph - N/A   Clear
1:15 AM 80.6 °F 82.3 °F 64.4 °F 58% 29.86 in 10.0 mi ENE 5.8 mph - N/A   Clear
1:35 AM 80.6 °F 82.7 °F 66.2 °F 61% 29.85 in 10.0 mi NE 9.2 mph - N/A   Scattered Clouds
1:55 AM 78.8 °F - 66.2 °F 65% 29.85 in 10.0 mi ENE 9.2 mph - N/A   Scattered Clouds
2:15 AM 78.8 °F - 68.0 °F 69% 29.84 in 10.0 mi ENE 8.1 mph - N/A   Mostly Cloudy
2:35 AM 78.8 °F - 68.0 °F 69% 29.83 in 10.0 mi East 8.1 mph - N/A   Scattered Clouds
2:55 AM 78.8 °F - 68.0 °F 69% 29.83 in 10.0 mi East 9.2 mph - N/A   Scattered Clouds
3:15 AM 77.0 °F - 68.0 °F 74% 29.84 in 10.0 mi East 5.8 mph - N/A Thunderstorm Mostly Cloudy
3:35 AM 77.0 °F - 68.0 °F 74% 29.84 in 10.0 mi East 6.9 mph - N/A   Overcast
3:55 AM 77.0 °F - 68.0 °F 74% 29.85 in 10.0 mi ESE 4.6 mph - N/A Rain , Thunderstorm Light Thunderstorms and Rain
4:15 AM 77.0 °F - 69.8 °F 78% 29.84 in 10.0 mi WSW 3.5 mph - 0.01 in Rain , Thunderstorm Light Thunderstorms and Rain
4:35 AM 75.2 °F - 73.4 °F 94% 29.85 in 10.0 mi WNW 5.8 mph - 0.02 in Rain , Thunderstorm Light Thunderstorms and Rain
4:55 AM 73.4 °F - 73.4 °F 100% 29.86 in 10.0 mi NW 12.7 mph 19.6 mph 0.03 in Rain , Thunderstorm Heavy Thunderstorms and Rain
5:15 AM 73.4 °F - 73.4 °F 100% 29.85 in 7.0 mi NW 8.1 mph - 0.06 in Rain , Thunderstorm Thunderstorms and Rain
5:35 AM 69.8 °F - 69.8 °F 100% 29.86 in 10.0 mi NNW 21.9 mph 28.8 mph 0.08 in Rain , Thunderstorm Light Thunderstorms and Rain
5:55 AM 68.0 °F - 68.0 °F 100% 29.84 in 2.5 mi North 12.7 mph 17.3 mph 0.08 in Rain , Thunderstorm Light Thunderstorms and Rain
5:57 AM 69.8 °F - 66.2 °F 88% 29.84 in 10.0 mi North 13.8 mph 20.7 mph N/A Rain , Thunderstorm Light Thunderstorms and Rain
6:47 AM 69.8 °F - 66.2 °F 88% 29.88 in 13.0 mi WNW 4.6 mph - N/A   Mostly Cloudy
7:47 AM 69.8 °F - 64.4 °F 83% 29.91 in 10.0 mi NE 6.9 mph - N/A Rain Light Rain
8:49 AM 68.0 °F - 64.4 °F 88% 29.89 in 13.0 mi NE 9.2 mph - N/A   Overcast
9:47 AM 71.6 °F - 64.4 °F 78% 29.88 in 13.0 mi NE 6.9 mph - N/A   Mostly Cloudy
10:47 AM 75.2 °F - 64.4 °F 69% 29.87 in 13.0 mi North 8.1 mph - N/A   Mostly Cloudy
11:53 AM 75.2 °F - 64.4 °F 69% 29.90 in 13.0 mi North 6.9 mph - N/A   Overcast
12:47 PM 71.6 °F - 66.2 °F 83% 29.93 in 4.0 mi NW 11.5 mph 18.4 mph N/A Rain Light Rain
1:47 PM 69.8 °F - 66.2 °F 88% 29.94 in 3.0 mi NW 11.5 mph 16.1 mph N/A Rain Heavy Rain
2:03 PM 69.8 °F - 66.2 °F 88% 29.94 in 6.0 mi North 10.4 mph - N/A Rain Rain
3:47 PM 73.4 °F - 66.2 °F 78% 29.91 in 13.0 mi North 5.8 mph - N/A   Overcast
4:47 PM 75.2 °F - 64.4 °F 69% 29.90 in 13.0 mi North 9.2 mph - N/A   Mostly Cloudy
5:55 PM 77.0 °F - 62.6 °F 61% 29.89 in 13.0 mi North 11.5 mph - N/A   Mostly Cloudy
6:47 PM 77.0 °F - 62.6 °F 61% 29.89 in 13.0 mi NNE 12.7 mph - N/A   Partly Cloudy
7:47 PM 75.2 °F - 62.6 °F 65% 29.90 in 13.0 mi NNE 13.8 mph - N/A   Partly Cloudy
10:15 PM 71.6 °F - 62.6 °F 73% 29.94 in 10.0 mi NNE 4.6 mph - N/A   Clear
10:35 PM 71.6 °F - 62.6 °F 73% 29.95 in 10.0 mi NNE 5.8 mph - N/A   Clear
10:55 PM 71.6 °F - 62.6 °F 73% 29.95 in 10.0 mi NNE 3.5 mph - N/A   Clear
11:15 PM 69.8 °F - 64.4 °F 83% 29.95 in 10.0 mi NNE 3.5 mph - N/A   Clear
11:35 PM 69.8 °F - 64.4 °F 83% 29.95 in 10.0 mi NNE 3.5 mph - N/A   Clear
11:55 PM 69.8 °F - 62.6 °F 78% 29.96 in 10.0 mi NNE 4.6 mph - N/A   Clear